LNI224 WIPP-WAHI

Flight info

Callsign LNI224
Flight time N/A
Altitude 33000
Route BORAS W12E BIDAK B469 HLM W17 CLP
Aircraft B739/M-SDE2E3FGHIRWXY/LB1

Departure

Time 2026-05-05 13:28
Airport Sultan Mahmud Badaruddin II Airport (WIPP)

Arrival

Time N/A
Airport Yogyakarta International Airport (WAHI)
Time Latitude Longitude Altitude Speed Heading
2026-05-05 13:12 -2.89593 104.70383 25 ft 0 kts 22°
2026-05-05 13:22 -2.89608 104.70377 12 ft 2 kts 23°
2026-05-05 13:22 -2.89623 104.70371 34 ft 2 kts 23°
2026-05-05 13:22 -2.89638 104.70364 30 ft 2 kts 24°
2026-05-05 13:23 -2.89653 104.70357 31 ft 2 kts 28°
2026-05-05 13:23 -2.89667 104.70348 27 ft 2 kts 56°
2026-05-05 13:23 -2.89670 104.70337 27 ft 1 kts 111°
2026-05-05 13:23 -2.89669 104.70336 27 ft 0 kts 111°
2026-05-05 13:24 -2.89670 104.70338 27 ft 2 kts 112°
2026-05-05 13:24 -2.89685 104.70376 27 ft 10 kts 112°
2026-05-05 13:25 -2.89723 104.70469 29 ft 17 kts 113°
2026-05-05 13:25 -2.89798 104.70551 25 ft 17 kts 187°
2026-05-05 13:25 -2.89898 104.70575 21 ft 17 kts 118°
2026-05-05 13:25 -2.89953 104.70704 19 ft 24 kts 113°
2026-05-05 13:26 -2.90024 104.70873 18 ft 26 kts 112°
2026-05-05 13:26 -2.90102 104.71032 17 ft 25 kts 137°
2026-05-05 13:26 -2.90232 104.70986 18 ft 19 kts 253°
2026-05-05 13:26 -2.90224 104.70925 19 ft 0 kts 290°
2026-05-05 13:27 -2.90222 104.70921 18 ft 2 kts 290°
2026-05-05 13:27 -2.90175 104.70806 18 ft 49 kts 293°
2026-05-05 13:28 -2.89950 104.70274 21 ft 116 kts 292°
2026-05-05 13:28 -2.89561 104.69356 15 ft 169 kts 293°
2026-05-05 13:28 -2.89059 104.68218 428 ft 182 kts 294°
2026-05-05 13:28 -2.88551 104.67032 1041 ft 188 kts 291°
2026-05-05 13:29 -2.88060 104.65777 1472 ft 205 kts 291°
2026-05-05 13:29 -2.87499 104.64368 1677 ft 230 kts 291°
2026-05-05 13:29 -2.86875 104.62821 2029 ft 245 kts 291°
2026-05-05 13:29 -2.86017 104.61347 2589 ft 252 kts 318°
2026-05-05 13:30 -2.84409 104.60574 3006 ft 267 kts 355°
2026-05-05 13:30 -2.82567 104.60849 3670 ft 272 kts 24°
2026-05-05 13:30 -2.81026 104.61935 4400 ft 274 kts 51°
2026-05-05 13:30 -2.80137 104.63606 5106 ft 275 kts 78°
2026-05-05 13:31 -2.80121 104.65503 5835 ft 275 kts 107°
2026-05-05 13:31 -2.80962 104.67199 6541 ft 276 kts 129°
2026-05-05 13:31 -2.82232 104.68648 7205 ft 279 kts 133°